Location: Etzleinsberg
(48.4833°N, 14.0333°E)
Time: 18:06:45
(UTC+00:00)

STARLINK-48 - Pass Details

Date: 07 June 2020
Orbit: 505 x 506 km, 53.0° (Epoch: 12 July)

Event Time Altitude Azimuth Distance (km) Brightness Sun altitude
Exits shadow 01:52:38 - 259° (W) 2,003 6.0 -9.3°
Reaches altitude 10° 01:53:21 10° 261° (W) 1,720 5.7 -9.2°
Maximum altitude 01:57:12 60° 342° (NNW) 587 3.9 -8.8°
Drops below altitude 10° 02:01:04 10° 63° (ENE) 1,726 7.4 -8.4°
Sets 02:03:17 0° 67° (ENE) 2,613 8.4 -8.1°
